FW0878 Weather Reports


time (UTC)temp
F
wind
direction
speed
knots
gust
knots
rain 1hr
in
rain 24hr
in
rain mn
in
humidity
%
barometer
mb
20260902070307 62 269 1.7 4.3 0.00 0.00 0.00 55 1011.0
20260902065808 62 249 1.7 4.3 0.00 0.00 0.00 54 1011.0
20260902065307 62 249 2.6 4.3 0.00 0.00 0.00 54 1011.1
20260902064806 63 207 1.7 4.3 0.00 0.00 0.00 54 1010.9
20260902064307 63 250 0.9 5.2 0.00 0.00 0.00 52 1011.0
20260902063806 64 271 1.7 4.3 0.00 0.00 0.00 50 1011.1
20260902063309 64 294 2.6 5.2 0.00 0.00 0.00 50 1011.1
20260902062806 64 292 0.9 4.3 0.00 0.00 0.00 50 1011.1
20260902062306 64 251 2.6 5.2 0.00 0.00 0.00 49 1011.3
20260902061807 64 338 0.9 4.3 0.00 0.00 0.00 50 1011.3
20260902060806 64 222 2.6 6.1 0.00 0.00 0.00 49 1011.4
20260902060306 64 245 0.9 5.2 0.00 0.00 0.00 50 1011.6
20260902055307 64 251 2.6 5.2 0.00 0.00 0.00 51 1011.5
20260902054806 64 0 1.7 7.0 0.00 0.00 0.00 50 1011.6
20260902053807 65 203 2.6 6.1 0.00 0.00 0.00 49 1011.9
20260902053307 65 293 0.9 4.3 0.00 0.00 0.00 49 1012.0
20260902052807 65 291 1.7 4.3 0.00 0.00 0.00 50 1012.1
20260902051807 64 250 0.9 2.6 0.00 0.00 0.00 50 1012.1
20260902051307 65 180 1.7 7.0 0.00 0.00 0.00 49 1012.1
20260902050808 65 292 2.6 7.0 0.00 0.00 0.00 49 1012.2
20260902045806 65 314 1.7 4.3 0.00 0.00 0.00 49 1012.1
20260902044807 64 202 2.6 6.1 0.00 0.00 0.00 50 1012.2
20260902044306 64 249 2.6 5.2 0.00 0.00 0.00 50 1012.3
20260902043806 64 226 0.9 4.3 0.00 0.00 0.00 51 1012.4
20260902043306 64 271 1.7 4.3 0.00 0.00 0.00 51 1012.4
20260902042807 65 338 0.9 4.3 0.00 0.00 0.00 50 1012.2
20260902042309 64 309 1.7 5.2 0.00 0.00 0.00 51 1012.3
20260902041806 63 269 0.9 4.3 0.00 0.00 0.00 53 1012.3
20260902041307 63 226 1.7 4.3 0.00 0.00 0.00 54 1012.3
20260902040307 63 246 0.9 2.6 0.00 0.00 0.00 54 1012.7
20260902035807 63 253 2.6 6.1 0.00 0.00 0.00 54 1012.5
20260902035307 63 268 1.7 5.2 0.00 0.00 0.00 52 1012.4
20260902034807 63 355 0.9 4.3 0.00 0.00 0.00 53 1012.5
20260902034307 63 181 0.9 4.3 0.00 0.00 0.00 54 1012.8
20260902033306 66 67 0.9 2.6 0.00 0.00 0.00 49 1012.6
20260902032806 66 243 0.9 2.6 0.00 0.00 0.00 48 1012.8
20260902032306 65 270 1.7 4.3 0.00 0.00 0.00 50 1012.8
20260902031806 62 272 0.9 6.1 0.00 0.00 0.00 55 1012.8
20260902031307 63 222 2.6 6.1 0.00 0.00 0.00 53 1012.7
20260902030807 63 90 0.9 4.3 0.00 0.00 0.00 53 1013.0
20260902025806 62 248 0.9 4.3 0.00 0.00 0.00 54 1013.3
20260902024807 62 293 1.7 5.2 0.00 0.00 0.00 55 1013.5
20260902023806 63 159 2.6 7.0 0.00 0.00 0.00 53 1013.7
20260902022807 61 250 1.7 5.2 0.00 0.00 0.00 56 1013.9
20260902022306 61 271 2.6 5.2 0.00 0.00 0.00 56 1014.0
20260902021806 61 270 1.7 5.2 0.00 0.00 0.00 56 1014.0
20260902021307 61 230 1.7 7.0 0.00 0.00 0.00 56 1014.1
20260902020307 62 226 0.9 5.2 0.00 0.00 0.00 55 1014.3
20260902015807 62 229 2.6 5.2 0.00 0.00 0.00 54 1014.4
20260902015306 62 292 0.9 4.3 0.00 0.00 0.00 55 1014.5
20260902014807 61 312 0.9 5.2 0.00 0.00 0.00 55 1014.7
20260902014307 61 266 2.6 7.0 0.00 0.00 0.00 56 1014.6
20260902013807 60 292 0.9 4.3 0.00 0.00 0.00 56 1014.6
20260902013308 60 269 1.7 4.3 0.00 0.00 0.00 58 1014.8
20260902012806 59 224 0.9 6.1 0.00 0.00 0.00 59 1014.8
20260902012309 59 292 1.7 6.1 0.00 0.00 0.00 59 1014.9
20260902011806 60 181 1.7 5.2 0.00 0.00 0.00 57 1015.0
20260902011307 59 289 1.7 6.1 0.00 0.00 0.00 58 1014.9
20260902010307 60 248 2.6 5.2 0.00 0.00 0.00 57 1015.1
20260902005307 61 271 2.6 6.1 0.00 0.00 0.00 56 1015.1
20260902004807 61 248 2.6 5.2 0.00 0.00 0.00 56 1015.0
20260902004306 59 251 2.6 5.2 0.00 0.00 0.00 58 1014.9
20260902003807 59 226 2.6 7.0 0.00 0.00 0.00 59 1015.1
20260902003307 60 290 3.5 7.8 0.00 0.00 0.00 59 1015.2
20260902002807 59 203 3.5 11.3 0.00 0.00 0.00 60 1015.1
20260902002307 59 272 3.5 7.8 0.00 0.00 0.00 59 1015.2
20260902001806 59 137 2.6 6.1 0.00 0.00 0.00 59 1015.3
20260902001306 60 288 4.3 8.7 0.00 0.00 0.00 59 1015.4
20260902000807 59 314 2.6 8.7 0.00 0.00 0.00 60 1015.6
20260902000306 59 291 4.3 8.7 0.00 0.00 0.00 60 1015.6
20260901235806 60 225 2.6 8.7 0.00 0.00 0.00 59 1015.6
20260901234806 58 249 3.5 10.4 0.00 0.00 0.00 62 1015.6
20260901234306 58 205 1.7 8.7 0.00 0.00 0.00 64 1015.5
20260901233306 58 269 3.5 6.1 0.00 0.00 0.00 63 1015.5
20260901232806 58 248 1.7 7.0 0.00 0.00 0.00 63 1015.5
20260901232308 57 249 3.5 7.0 0.00 0.00 0.00 64 1015.6
20260901231307 57 269 4.3 8.7 0.00 0.00 0.00 64 1015.7
20260901230807 57 292 4.3 8.7 0.00 0.00 0.00 65 1015.6
20260901225807 57 246 3.5 7.8 0.00 0.00 0.00 65 1015.7
20260901224806 56 205 2.6 7.8 0.00 0.00 0.00 68 1015.9
20260901224306 56 228 2.6 7.0 0.00 0.00 0.00 71 1015.6
20260901223806 56 337 2.6 7.8 0.00 0.00 0.00 70 1015.7
20260901223307 56 249 1.7 6.1 0.00 0.00 0.00 73 1015.5
20260901222807 55 290 2.6 6.1 0.00 0.00 0.00 72 1015.7
20260901221806 56 270 1.7 7.0 0.00 0.00 0.00 73 1015.7
20260901221306 55 267 1.7 5.2 0.00 0.00 0.00 75 1015.6
20260901220807 55 269 0.9 2.6 0.00 0.00 0.00 76 1015.6
20260901220308 54 292 1.7 6.1 0.00 0.00 0.00 76 1015.7
20260901215807 54 224 1.7 4.3 0.00 0.00 0.00 77 1015.5
20260901215309 54 246 0.9 2.6 0.00 0.00 0.00 78 1015.5
20260901214806 54 162 1.7 4.3 0.00 0.00 0.00 78 1015.3
20260901214306 54 247 0.9 1.7 0.00 0.00 0.00 78 1015.4
20260901213807 54 225 0.9 2.6 0.00 0.00 0.00 78 1015.3
20260901212806 53 161 0.9 2.6 0.00 0.00 0.00 79 1015.1
20260901212308 53 270 1.7 4.3 0.00 0.00 0.00 79 1015.1
20260901211807 53 225 1.7 4.3 0.00 0.00 0.00 80 1015.0
20260901211307 53 266 0.9 2.6 0.00 0.00 0.00 80 1014.9
20260901210807 53 203 0.9 2.6 0.00 0.00 0.00 80 1014.8
20260901210307 53 251 0.9 4.3 0.00 0.00 0.00 80 1014.9
20260901205809 53 249 2.6 5.2 0.00 0.00 0.00 80 1014.8
20260901205307 53 223 2.6 5.2 0.00 0.00 0.00 80 1014.8
20260901204806 53 248 1.7 4.3 0.00 0.00 0.00 80 1014.6
20260901203807 54 161 0.9 4.3 0.00 0.00 0.00 79 1014.6
20260901203306 54 243 1.7 6.1 0.00 0.00 0.00 79 1014.4
20260901202807 54 268 2.6 7.0 0.00 0.00 0.00 79 1014.3
20260901202308 54 269 2.6 6.1 0.00 0.00 0.00 80 1014.4
20260901201806 54 270 2.6 4.3 0.00 0.00 0.00 80 1014.2
20260901201307 53 226 1.7 2.6 0.00 0.00 0.00 81 1014.2
20260901200809 53 270 1.7 4.3 0.00 0.00 0.00 81 1014.1
20260901195807 53 269 1.7 5.2 0.00 0.00 0.00 81 1013.9
20260901194808 54 270 1.7 6.1 0.00 0.00 0.00 81 1014.0
20260901194306 54 161 2.6 7.0 0.00 0.00 0.00 81 1014.0
20260901193809 54 247 2.6 7.0 0.00 0.00 0.00 81 1013.8
20260901193307 54 289 1.7 5.2 0.00 0.00 0.00 82 1014.0
20260901192806 54 226 2.6 4.3 0.00 0.00 0.00 82 1014.0
20260901191806 54 225 2.6 6.1 0.00 0.00 0.00 83 1014.1
20260901191308 54 226 1.7 6.1 0.00 0.00 0.00 83 1014.1
20260901190807 54 247 1.7 4.3 0.00 0.00 0.00 83 1013.9
20260901190307 54 248 1.7 5.2 0.00 0.00 0.00 83 1013.9
20260901185806 54 181 1.7 4.3 0.00 0.00 0.00 83 1013.5
20260901185307 54 291 0.9 4.3 0.00 0.00 0.00 83 1013.7
20260901184806 54 289 0.9 6.1 0.00 0.00 0.00 83 1013.5
20260901184308 55 247 1.7 4.3 0.00 0.00 0.00 83 1013.4
20260901183807 55 269 0.9 5.2 0.00 0.00 0.00 83 1013.3
20260901183308 55 248 0.9 4.3 0.00 0.00 0.00 83 1013.3
20260901182806 55 269 1.7 4.3 0.00 0.00 0.00 83 1013.4
20260901182307 55 204 1.7 4.3 0.00 0.00 0.00 83 1013.3
20260901181806 55 202 0.9 4.3 0.00 0.00 0.00 84 1013.2
20260901181306 55 248 1.7 5.2 0.00 0.00 0.00 84 1013.3
20260901180306 55 268 2.6 5.2 0.00 0.00 0.00 86 1013.0
20260901175307 55 249 2.6 5.2 0.00 0.00 0.00 86 1012.9
20260901174807 56 205 1.7 5.2 0.00 0.00 0.00 85 1012.9
20260901173806 56 225 3.5 7.0 0.00 0.00 0.00 84 1013.0
20260901173307 56 253 2.6 10.4 0.00 0.00 0.00 83 1013.0
20260901172806 57 270 4.3 8.7 0.00 0.00 0.00 81 1012.9
20260901172307 57 247 3.5 7.0 0.00 0.00 0.00 80 1013.0
20260901171806 58 181 4.3 12.2 0.00 0.00 0.00 80 1012.9
20260901171307 59 185 3.5 11.3 0.00 0.00 0.00 79 1012.7
20260901170307 60 250 0.9 1.7 0.00 0.00 0.00 75 1012.2
20260901165806 60 268 0.9 1.7 0.00 0.00 0.00 75 1012.3
20260901165307 60 291 0.9 2.6 0.00 0.00 0.00 75 1012.3
20260901164307 60 248 0.9 2.6 0.00 0.00 0.00 75 1012.0
20260901163807 60 233 0.9 2.6 0.00 0.00 0.00 75 1012.3
20260901162806 60 253 0.9 1.7 0.00 0.00 0.00 75 1012.3
20260901162307 60 313 0.9 4.3 0.00 0.00 0.00 74 1012.4
20260901161307 60 337 0.9 2.6 0.00 0.00 0.00 74 1012.4
20260901160809 60 292 0.9 2.6 0.00 0.00 0.00 74 1012.4
20260901160307 60 268 0.9 1.7 0.00 0.00 0.00 74 1012.5
20260901155806 60 2 0.9 4.3 0.00 0.00 0.00 74 1012.4
20260901155308 60 315 0.9 4.3 0.00 0.00 0.00 74 1012.4
20260901154807 60 295 0.9 2.6 0.00 0.00 0.00 74 1012.4
20260901154307 60 271 0.9 1.7 0.00 0.00 0.00 74 1012.5
20260901153806 60 155 0.9 1.7 0.00 0.00 0.00 74 1012.4
20260901153306 59 292 0.9 1.7 0.00 0.00 0.00 75 1012.5
20260901152807 59 270 0.9 1.7 0.00 0.00 0.00 74 1012.5
20260901152307 59 251 0.9 1.7 0.00 0.00 0.00 74 1012.5
20260901151807 59 293 0.0 1.7 0.00 0.00 0.00 74 1012.5
20260901150807 60 204 0.9 1.7 0.00 0.00 0.00 73 1012.5
20260901150307 60 250 0.9 1.7 0.00 0.00 0.00 73 1012.5
20260901145807 60 314 0.9 1.7 0.00 0.00 0.00 72 1012.4
20260901145308 60 251 0.9 4.3 0.00 0.00 0.00 72 1012.3
20260901144806 60 337 1.7 4.3 0.00 0.00 0.00 72 1012.3
20260901143807 60 315 0.9 2.6 0.00 0.00 0.00 71 1012.2
20260901142807 61 21 0.9 4.3 0.00 0.00 0.00 71 1012.2
20260901142307 61 338 2.6 5.2 0.00 0.00 0.00 70 1012.5
20260901141808 61 65 0.9 2.6 0.00 0.00 0.00 70 1012.4
20260901141307 61 295 0.9 2.6 0.00 0.00 0.00 70 1012.5
20260901140806 62 358 0.9 4.3 0.00 0.00 0.00 69 1012.3
20260901140307 62 337 0.9 4.3 0.00 0.00 0.00 69 1012.5
20260901135806 62 314 0.9 2.6 0.00 0.00 0.00 69 1012.4
20260901135307 62 46 0.9 2.6 0.00 0.00 0.00 69 1012.4
20260901134808 62 310 0.9 2.6 0.00 0.00 0.00 69 1012.4
20260901134308 62 337 0.9 4.3 0.00 0.00 0.00 68 1012.4
20260901133306 63 358 0.9 6.1 0.00 0.00 0.00 66 1012.7
20260901131806 63 338 0.9 4.3 0.00 0.00 0.00 65 1012.6
20260901131307 63 293 0.9 5.2 0.00 0.00 0.00 65 1012.6
20260901130807 63 266 0.9 4.3 0.00 0.00 0.00 65 1012.7
20260901130308 63 21 1.7 4.3 0.00 0.00 0.00 65 1012.6
20260901125808 63 338 0.9 2.6 0.00 0.00 0.00 65 1012.4
20260901125309 63 333 1.7 10.4 0.00 0.00 0.00 64 1012.5
20260901124807 64 249 2.6 10.4 0.00 0.00 0.00 64 1012.6
20260901124307 64 317 2.6 5.2 0.00 0.00 0.00 64 1012.4
20260901123807 64 44 2.6 5.2 0.00 0.00 0.00 64 1012.4
20260901123307 64 359 2.6 8.7 0.00 0.00 0.00 63 1012.5
20260901122807 64 359 2.6 6.1 0.00 0.00 0.00 63 1012.4
20260901122306 64 9 1.7 6.1 0.00 0.00 0.00 63 1012.5
20260901121807 64 4 1.7 7.8 0.00 0.00 0.00 63 1012.4
20260901121306 64 136 1.7 7.8 0.00 0.00 0.00 63 1012.5
20260901120806 64 272 2.6 7.0 0.00 0.00 0.00 63 1012.4
20260901120309 63 359 2.6 6.1 0.00 0.00 0.00 64 1012.5
20260901115808 63 315 0.9 7.8 0.00 0.00 0.00 64 1012.4
20260901115307 63 183 2.6 7.8 0.00 0.00 0.00 65 1012.5
20260901114806 63 336 2.6 7.0 0.00 0.00 0.00 66 1012.1
20260901113806 64 311 2.6 7.0 0.00 0.00 0.00 65 1012.2
20260901113306 64 157 2.6 7.0 0.00 0.00 0.00 62 1012.3
20260901112806 64 269 1.7 5.2 0.00 0.00 0.00 63 1012.5
20260901112307 64 251 0.9 4.3 0.00 0.00 0.00 63 1012.6
20260901111307 64 288 1.7 4.3 0.00 0.00 0.00 62 1012.4
20260901110807 64 271 1.7 4.3 0.00 0.00 0.00 62 1012.5
20260901105807 64 316 1.7 4.3 0.00 0.00 0.00 61 1012.4
20260901104807 64 312 2.6 6.1 0.00 0.00 0.00 61 1012.5
20260901104306 64 337 2.6 6.1 0.00 0.00 0.00 61 1012.3
20260901103806 64 2 2.6 7.0 0.00 0.00 0.00 61 1012.3
20260901103307 64 24 1.7 6.1 0.00 0.00 0.00 61 1012.3
20260901102806 64 315 2.6 5.2 0.00 0.00 0.00 61 1012.2
20260901101807 65 251 3.5 7.8 0.00 0.00 0.00 60 1012.0
20260901101307 65 229 3.5 8.7 0.00 0.00 0.00 60 1012.0
20260901100807 65 206 4.3 8.7 0.00 0.00 0.00 59 1012.1
20260901100306 65 337 2.6 6.1 0.00 0.00 0.00 60 1012.2
20260901095808 65 339 2.6 4.3 0.00 0.00 0.00 59 1012.2
20260901095307 65 0 1.7 2.6 0.00 0.00 0.00 58 1012.3
20260901094306 65 15 0.9 5.2 0.00 0.00 0.00 59 1012.3
20260901093807 65 159 2.6 7.0 0.00 0.00 0.00 59 1012.3
20260901093306 65 316 3.5 7.8 0.00 0.00 0.00 60 1012.2
20260901091808 65 270 0.9 1.7 0.00 0.00 0.00 62 1012.5
20260901091307 65 277 0.9 2.6 0.00 0.00 0.00 61 1012.6
20260901090807 66 290 1.7 4.3 0.00 0.00 0.00 59 1012.7
20260901090307 66 271 0.9 4.3 0.00 0.00 0.00 58 1012.7
20260901085807 66 270 0.9 5.2 0.00 0.00 0.00 56 1012.6
20260901085307 66 338 1.7 5.2 0.00 0.00 0.00 56 1012.5
20260901084806 66 317 0.9 2.6 0.00 0.00 0.00 56 1012.6
20260901084307 66 309 1.7 2.6 0.00 0.00 0.00 56 1012.7
20260901083809 66 337 0.9 5.2 0.00 0.00 0.00 56 1012.7
20260901082806 67 19 1.7 4.3 0.00 0.00 0.00 55 1012.7
20260901082307 67 316 1.7 4.3 0.00 0.00 0.00 54 1012.7
20260901081807 67 336 1.7 5.2 0.00 0.00 0.00 55 1012.8
20260901081306 67 358 1.7 2.6 0.00 0.00 0.00 54 1013.0
20260901080307 67 340 1.7 4.3 0.00 0.00 0.00 54 1013.0
20260901073806 67 357 1.7 4.3 0.00 0.00 0.00 52 1013.3
20260901073308 68 0 0.9 4.3 0.00 0.00 0.00 52 1013.5
20260901072806 68 351 1.7 4.3 0.00 0.00 0.00 52 1013.6
20260901072309 68 290 0.9 5.2 0.00 0.00 0.00 51 1013.5
20260901071807 68 250 1.7 5.2 0.00 0.00 0.00 51 1013.4
20260901071306 68 272 2.6 5.2 0.00 0.00 0.00 51 1013.6
20260901070806 68 1 1.7 5.2 0.00 0.00 0.00 51 1013.5